Voltar ao catálogo

YAOGAN 17C

AtivoMilitarLEO
NORAD 39241·PAYLOAD·🇨🇳 China

Lançado Sep 1, 2013 de Jiuquan Satellite Launch Center

Loading…

Próximas Passagens (próximas 24 horas)

TLE

AtualizadoSource: Space-Track

Época: Sep 14, 2026, 13:58 UTC

1 39241U 13046C   26257.58247021 -.00000056  00000-0  33138-4 0  9998
2 39241  63.3842 219.0514 0435011  11.9195 349.1737 13.45485876640408

Acompanhe YAOGAN 17C em tempo real com AllMySat

Download on the App Store